Location: Aiyekoto
(8.4333°N, 4.3667°E)
Time: 00:39:34
(UTC+00:00)

Spot 2 - Pass Details

Date: 07 June 2020
Orbit: 570 x 774 km, 98.7° (Epoch: 13 July)

Event Time Altitude Azimuth Distance (km) Brightness Sun altitude
Rises 04:24:43 0° 6° (N) 2,789 7.9 -14.1°
Reaches altitude 10° 04:26:50 10° 3° (N) 1,908 7.0 -13.6°
Maximum altitude 04:30:54 62° 283° (WNW) 685 4.0 -12.7°
Drops below altitude 10° 04:35:11 10° 202° (SSW) 2,008 6.2 -11.7°
Enters shadow 04:35:47 - 201° (SSW) 2,252 6.5 -11.6°
